Location: ????
(33.1659°N, 35.6604°E)
Time: 06:22:09
(UTC+00:00)

Aureole 1 Rocket - Pass Details

Date: 20 September 2019
Orbit: 379 x 1383 km, 73.9° (Epoch: 17 October)

Event Time Altitude Azimuth Distance (km) Brightness Sun altitude
Rises 16:46:27 0° 339° (NNW) 3,144 7.1 -15.2°
Reaches altitude 10° 16:49:06 10° 337° (NNW) 2,052 6.2 -15.7°
Maximum altitude 16:53:30 62° 257° (WSW) 601 3.2 -16.6°
Drops below altitude 10° 16:56:56 10° 175° (S) 1,602 5.0 -17.3°
Enters shadow 16:57:05 - 175° (S) 1,661 5.1 -17.3°
